Location: Lobos
(35.3000°S, 59.0940°W)
Time: 06:52:34
(UTC-03:00)

STARLINK-1734 - Pass Details

Date: 21 September 2020
Orbit: 378 x 380 km, 53.0° (Epoch: 22 October)

Event Time Altitude Azimuth Distance (km) Brightness Sun altitude
Rises 20:15:18 0° 220° (SW) 2,268 ? -17.6°
Reaches altitude 10° 20:17:26 10° 212° (SSW) 1,412 ? -18.0°
Enters shadow 20:20:12 40° 155° (SSE) 584 ? -18.5°
